Voltar ao catálogo

STARLINK-32769

AtivoComunicaçõesVLEO
NORAD 62602·PAYLOAD·🇺🇸 United States

Lançado Jan 13, 2025 de Cape Canaveral Space Force Station

Loading…

Próximas Passagens (próximas 24 horas)

TLE

AtualizadoSource: CelesTrak SupGP

Época: Sep 15, 2026, 03:03 UTC

1 62602C 25008R   26258.12756944  .00004605  00000+0  16676-3 0  2583
2 62602  42.9999 287.9796 0001496 265.4197 235.4272 15.27581422    15

Acompanhe STARLINK-32769 em tempo real com AllMySat

Download on the App Store